Flight Briefing for CPX716

Departure Arrival
General Omar Torrijos International Airport (MPTO)
Click to view FAA NOTAMS
Miami International Airport (KMIA)
Click to view FAA NOTAMS
Departure Time Arrival Time
N/A N/A
Aircraft Distance
B767-300BDSF 1007nm
Departure METAR Arrival METAR
MPTO 230700Z 00000KT 9999 FEW018 25/24 Q1011 NOSIG KMIA 230653Z 09014KT 10SM SCT030TCU BKN038 27/21 A3008 RMK AO2 SLP185 TCU E-SE T02670206
Suggested Route
TASNO UL780 URSUS FLIPR6


View recent IFR Routes data
Notes



Charts and Procedures

Charts for MPTO
No chart available
Charts for KMIA
No chart available

Windy.com Weather Map